Погода в Ротереме

Великобритания     53°25′49″N   1°21′16″W
темп.,
°C
ветер,
м/с
пор.,
м/с
влажн.,
%
обл.,
%
осадки,
мм/ч
давл.,
гПа
погр.,
м
5 мая, ср
ср501:00+3зсз499196 0.8 1004283
04:00+2зсз4109331 0.0 1005405
07:00+3зсз3885100 0.0 1006498
10:00+7сз465098 0.0 10071345
13:00+10сз463693 0.1 10072662
16:00+10зсз573875 0.0 10072611
19:00+8зсз46501 0.0 10071299
22:00+4зсз3966100 0.0 1008415
6 мая, чт
чт601:00+4зюз3770100 0.0 1007277
04:00+3зюз2677100 0.0 1006255
07:00+4з377794 0.0 1005373
10:00+7сз34497 0.1 10051542
13:00+10зсз3435100 0.3 10042778
16:00+10зсз6634100 0.0 10042507
19:00+8зсз586739 0.6 10051143
22:00+4сз498851 0.4 1008401
7 мая, пт
пт701:00+3зсз27885 0.4 1009212
04:00+3зсз410855 0.0 1010322
07:00+4зсз378418 0.0 1013338
10:00+8сз346186 0.1 10141346
13:00+10зсз344866 0.1 10151752
16:00+12з334292 0.1 10141974
19:00+10з345488 0.3 1015909
22:00+6зсз117119 0.0 101537
8 мая, сб
сб801:00+5юв227762 0.0 101440
04:00+4юв2679100 0.0 1012200
07:00+5ююв41179100 0.1 1009650
10:00+5юв51496100 2.8 1005777
13:00+6юв61497100 7.2 1000851
16:00+10ю41398100 1.6 997597
19:00+12ююз41297100 3.1 996675
22:00+12ююз51297100 0.3 996771
9 мая, вс
вс901:00+12ююз61495100 0.3 996930
04:00+12ю6159390 0.0 9951007
07:00+12ю61487100 0.0 994968
10:00+14ю61577100 0.0 9931032
13:00+18ю61462100 0.0 9921736
16:00+16ююз61475100 0.8 9911675
19:00+12юз4118194 1.9 993821
22:00+10ююв31089100 0.0 994462